TimeEST,TemperatureF,Dew PointF,Humidity,Sea Level PressureIn,VisibilityMPH,Wind Direction,Wind SpeedMPH,Gust SpeedMPH,PrecipitationIn,Events,Conditions,WindDirDegrees,DateUTC
12:54 AM,30.2,15.8,55,30.32,10.0,North,5.8,-,N/A,,Overcast,360,2013-02-22 05:54:00
1:54 AM,30.0,16.0,56,30.30,10.0,North,5.8,-,N/A,,Overcast,10,2013-02-22 06:54:00
2:54 AM,30.0,17.1,59,30.33,10.0,North,5.8,-,N/A,,Overcast,10,2013-02-22 07:54:00
3:54 AM,30.0,17.1,59,30.35,10.0,Variable,4.6,-,N/A,,Overcast,0,2013-02-22 08:54:00
4:54 AM,28.9,17.1,61,30.38,10.0,Calm,Calm,-,N/A,,Overcast,0,2013-02-22 09:54:00
5:54 AM,30.0,17.1,59,30.38,10.0,North,3.5,-,N/A,,Overcast,350,2013-02-22 10:54:00
6:54 AM,30.0,18.0,61,30.36,10.0,NE,6.9,-,N/A,,Overcast,40,2013-02-22 11:54:00
7:54 AM,30.0,17.1,59,30.39,10.0,NE,9.2,-,N/A,,Overcast,50,2013-02-22 12:54:00
8:54 AM,30.0,18.0,61,30.38,10.0,ENE,10.4,-,N/A,,Overcast,70,2013-02-22 13:54:00
9:54 AM,30.0,19.0,64,30.35,10.0,East,11.5,-,N/A,,Overcast,100,2013-02-22 14:54:00
10:54 AM,30.9,19.0,61,30.35,10.0,East,9.2,-,N/A,,Overcast,100,2013-02-22 15:54:00
11:54 AM,32.0,19.9,61,30.34,10.0,ESE,4.6,-,N/A,,Overcast,110,2013-02-22 16:54:00
12:54 PM,32.0,19.9,61,30.33,10.0,SE,4.6,-,0.00,Snow,Light Snow,140,2013-02-22 17:54:00
1:54 PM,33.1,21.9,64,30.31,10.0,Calm,Calm,-,0.00,Rain-Snow,Light Rain,0,2013-02-22 18:54:00
2:21 PM,33.8,21.2,60,30.30,10.0,SE,5.8,-,0.00,,Overcast,130,2013-02-22 19:21:00
2:54 PM,33.1,23.0,66,30.30,10.0,SSE,6.9,-,0.00,Rain,Light Rain,160,2013-02-22 19:54:00
3:54 PM,32.0,23.0,69,30.29,10.0,SE,4.6,-,0.00,,Overcast,140,2013-02-22 20:54:00
4:54 PM,32.0,26.1,79,30.29,10.0,SSE,3.5,-,0.00,Rain,Light Rain,150,2013-02-22 21:54:00
5:54 PM,30.9,27.0,85,30.28,10.0,SE,3.5,-,0.01,Rain,Freezing Rain,130,2013-02-22 22:54:00
6:51 PM,32.0,28.4,87,30.28,10.0,Calm,Calm,-,0.01,Rain,Light Freezing Rain,0,2013-02-22 23:51:00
6:54 PM,32.0,27.0,82,30.28,10.0,Calm,Calm,-,0.01,Rain,Light Freezing Rain,0,2013-02-22 23:54:00
6:58 PM,32.0,26.6,80,30.27,10.0,Calm,Calm,-,0.00,Rain,Light Freezing Rain,0,2013-02-22 23:58:00
7:35 PM,32.0,28.4,87,30.27,10.0,Calm,Calm,-,0.01,,Overcast,0,2013-02-23 00:35:00
7:54 PM,32.0,28.0,85,30.28,10.0,Calm,Calm,-,0.01,,Overcast,0,2013-02-23 00:54:00
8:54 PM,32.0,28.9,88,30.27,9.0,Calm,Calm,-,N/A,,Overcast,0,2013-02-23 01:54:00
9:35 PM,32.0,28.4,87,30.26,10.0,Calm,Calm,-,N/A,,Overcast,0,2013-02-23 02:35:00
9:52 PM,32.0,28.4,87,30.25,6.0,Calm,Calm,-,0.00,,Light Freezing Drizzle,0,2013-02-23 02:52:00
9:54 PM,32.0,28.9,88,30.26,6.0,Calm,Calm,-,0.00,,Light Freezing Drizzle,0,2013-02-23 02:54:00
10:47 PM,30.2,30.2,100,30.24,4.0,Calm,Calm,-,0.00,,Light Freezing Drizzle,0,2013-02-23 03:47:00
10:54 PM,30.9,30.0,96,30.24,4.0,Calm,Calm,-,0.00,,Light Freezing Drizzle,0,2013-02-23 03:54:00
11:22 PM,32.0,30.2,93,30.23,4.0,Calm,Calm,-,0.00,,Overcast,0,2013-02-23 04:22:00
11:37 PM,32.0,30.2,93,30.24,4.0,Calm,Calm,-,0.00,,Overcast,0,2013-02-23 04:37:00
11:45 PM,32.0,30.2,93,30.23,4.0,Calm,Calm,-,0.00,,Overcast,0,2013-02-23 04:45:00
11:54 PM,32.0,30.0,92,30.23,3.0,Calm,Calm,-,0.00,,Light Drizzle,0,2013-02-23 04:54:00